This is the latest recevied weather packets stored in our database for station/object CQ0XCR-11. If no packets are shown the sender has not sent any weather packets the latest 1 day(s).
| Time | Temp. | Humidity | Pressure | Rain* | Wind** | Luminosity | Snow |
|---|---|---|---|---|---|---|---|
| 1778010762 | -2.78° C | - | 6550.2 hPa | 0.25 mm | 1.79 m/s, 299° | - | - |
| 1778010638 | -2.78° C | - | 6550.2 hPa | 0.25 mm | 1.79 m/s, 312° | - | - |
| 1778010514 | -2.78° C | - | 6550.2 hPa | 0.25 mm | 2.24 m/s, 294° | - | - |
| 1778010390 | -2.78° C | - | 6550.2 hPa | 0.25 mm | 1.34 m/s, 288° | - | - |
| 1778010266 | -2.78° C | - | 6550.2 hPa | 0.25 mm | 1.79 m/s, 307° | - | - |
| 1778010142 | -2.78° C | - | 6550.2 hPa | 0.25 mm | 2.24 m/s, 312° | - | - |
| 1778010018 | -2.78° C | - | 6550.2 hPa | 0.25 mm | 1.34 m/s, 284° | - | - |
| 1778009894 | -2.78° C | - | 6550.2 hPa | 0.25 mm | 2.68 m/s, 291° | - | - |
| 1778009770 | -2.78° C | - | 6550.2 hPa | 0.25 mm | 2.68 m/s, 283° | - | - |
| 1778009646 | -2.78° C | - | 6550.2 hPa | 0.25 mm | 3.13 m/s, 295° | - | - |
| 1778009522 | -2.78° C | - | 6550.2 hPa | 0.25 mm | 1.34 m/s, 274° | - | - |
| 1778009398 | -2.78° C | - | 6550.2 hPa | 0.25 mm | 2.68 m/s, 315° | - | - |
| 1778009274 | -2.78° C | - | 6550.2 hPa | 0.25 mm | 1.34 m/s, 295° | - | - |
| 1778009150 | -2.78° C | - | 6550.2 hPa | 0.25 mm | 3.13 m/s, 307° | - | - |
| 1778009026 | -2.78° C | - | 6550.2 hPa | 0.25 mm | 2.24 m/s, 294° | - | - |
| 1778008902 | -2.78° C | - | 6550.2 hPa | 0.25 mm | 1.34 m/s, 323° | - | - |
| 1778008778 | -2.78° C | - | 6550.2 hPa | 0.25 mm | 3.13 m/s, 288° | - | - |
| 1778008654 | -2.78° C | - | 6550.2 hPa | 0.25 mm | 1.34 m/s, 308° | - | - |
| 1778008530 | -2.78° C | - | 6550.2 hPa | 0.25 mm | 1.79 m/s, 280° | - | - |
| 1778008406 | -2.78° C | - | 6550.2 hPa | 0 mm | 2.24 m/s, 304° | - | - |
| 1778008282 | -2.78° C | - | 6550.2 hPa | 0 mm | 5.81 m/s, 305° | - | - |
| 1778008158 | -2.78° C | - | 6550.2 hPa | 0 mm | 6.71 m/s, 301° | - | - |
| 1778008034 | -2.78° C | - | 6550.2 hPa | 0 mm | 3.13 m/s, 292° | - | - |
| 1778007786 | -2.78° C | - | 6550.2 hPa | 0 mm | 5.81 m/s, 292° | - | - |
| 1778007662 | -2.78° C | - | 6550.2 hPa | 0 mm | 3.58 m/s, 294° | - | - |
* Rain since midnight (hover to see other rain measurements)
** Current wind speed in m/s (hover to see current wind gust speed)